Date String (YYYY-MM-DD hh:mm:ss) UTC,Instrument flags,Ambient pressure (hPa),Sample flow (lpm),Bypass flow (lpm),Sample temperature (°C),Ambient temperature (°C),ASC tube jacket temperature (°C),LED temperature (°C),Box temperature (°C),Sample RH (%),Span deviation,Mass concentration (μg/m³),Mass concentration (μg/m³),Mass concentration (μg/m³)
DateTimeUTC,F1_M11,P_M11,Q1_M11,Q2_M11,T1_M11,T2_M11,T3_M11,T4_M11,T5_M11,U1_M11,ZSPAN_M11,X0_M11,X2_M11,X1_M11
2022-11-11 15:00:00,,0829.3,4.99,0.00,22.4,21.1,00.0,31.3,24.2,09.6,0000.0,0010.99,0004.07,0003.61
2022-11-11 15:01:00,,0829.1,4.99,0.00,22.4,21.0,00.0,31.3,24.2,09.6,0000.0,0010.41,0004.09,0003.62
2022-11-11 15:02:00,,0829.2,5.01,0.00,22.4,20.9,00.0,31.3,24.2,09.6,0000.0,0010.05,0004.08,0003.61
2022-11-11 15:03:00,,0829.2,5.00,0.00,22.4,20.9,00.0,31.3,24.2,09.6,0000.0,0009.94,0004.08,0003.61
2022-11-11 15:04:00,,0829.4,5.00,0.00,22.4,20.9,00.0,31.3,24.2,09.6,0000.0,0010.35,0004.12,0003.60
2022-11-11 15:05:00,,0828.8,4.98,0.00,22.4,20.9,00.0,31.2,24.2,09.7,0000.0,0011.01,0004.17,0003.61
2022-11-11 15:06:00,,0828.8,5.00,0.00,22.4,20.9,00.0,31.2,24.2,09.7,0000.0,0010.96,0004.17,0003.62
2022-11-11 15:07:00,,0828.9,5.01,0.00,22.4,21.2,00.0,31.2,24.2,09.7,0000.0,0011.02,0004.19,0003.63
2022-11-11 15:08:00,,0828.9,5.00,0.00,22.5,22.1,00.0,31.2,24.4,09.6,0000.0,0010.73,0004.22,0003.63
2022-11-11 15:09:00,,0828.9,4.99,0.00,22.6,22.6,00.0,31.2,24.6,09.6,0000.0,0010.39,0004.24,0003.63
2022-11-11 15:10:00,,0828.8,5.00,0.00,22.6,22.3,00.0,31.3,24.6,09.7,0000.0,0010.05,0004.23,0003.64
2022-11-11 15:11:00,,0829.0,5.00,0.00,22.6,22.0,00.0,31.3,24.5,09.7,0000.0,0009.87,0004.21,0003.64
2022-11-11 15:12:00,,0828.9,5.01,0.00,22.6,21.7,00.0,31.3,24.5,09.6,0000.0,0009.86,0004.19,0003.64
2022-11-11 15:13:00,,0828.9,5.00,0.00,22.6,21.5,00.0,31.3,24.4,09.6,0000.0,0010.26,0004.22,0003.67
2022-11-11 15:14:00,,0828.9,5.00,0.00,22.6,21.4,00.0,31.3,24.4,09.6,0000.0,0010.07,0004.25,0003.70
2022-11-11 15:15:00,,0828.9,5.00,0.00,22.6,21.3,00.0,31.3,24.4,09.5,0000.0,0009.45,0004.24,0003.73
2022-11-11 15:16:00,,0828.9,5.00,0.00,22.6,21.3,00.0,31.3,24.4,09.6,0000.0,0009.00,0004.25,0003.76
2022-11-11 15:17:00,,0828.9,5.01,0.00,22.6,21.3,00.0,31.3,24.4,09.6,0000.0,0009.83,0004.29,0003.80
2022-11-11 15:18:00,,0828.9,4.99,0.00,22.6,21.3,00.0,31.3,24.4,09.7,0000.0,0009.42,0004.30,0003.83
2022-11-11 15:19:00,,0828.9,5.00,0.00,22.6,21.2,00.0,31.3,24.4,09.7,0000.0,0009.29,0004.31,0003.87
2022-11-11 15:20:00,,0828.9,5.01,0.00,22.6,21.2,00.0,31.3,24.4,09.7,0000.0,0009.53,0004.35,0003.91
2022-11-11 15:21:00,,0829.0,4.99,0.00,22.5,21.2,00.0,31.3,24.3,09.8,0000.0,0009.70,0004.39,0003.92
2022-11-11 15:22:00,,0828.9,5.01,0.00,22.5,21.1,00.0,31.3,24.3,09.8,0000.0,0009.44,0004.43,0003.95
2022-11-11 15:23:00,,0828.9,4.99,0.00,22.5,21.5,00.0,31.3,24.4,09.9,0000.0,0009.34,0004.46,0003.97
2022-11-11 15:24:00,,0828.8,5.01,0.00,22.6,22.3,00.0,31.3,24.6,09.9,0000.0,0008.93,0004.44,0003.97
2022-11-11 15:25:00,,0828.9,4.99,0.00,22.7,22.8,00.0,31.3,24.8,09.8,0000.0,0009.58,0004.47,0003.97
2022-11-11 15:26:00,,0828.9,5.00,0.00,22.7,22.4,00.0,31.4,24.8,09.7,0000.0,0009.67,0004.50,0003.99
2022-11-11 15:27:00,,0828.9,5.01,0.00,22.7,22.1,00.0,31.4,24.7,09.7,0000.0,0009.57,0004.50,0004.00
2022-11-11 15:28:00,,0828.9,4.99,0.00,22.7,21.9,00.0,31.4,24.6,09.6,0000.0,0009.02,0004.53,0004.01
2022-11-11 15:29:00,,0828.9,5.00,0.00,22.7,21.7,00.0,31.4,24.6,09.6,0000.0,0009.05,0004.56,0004.02
2022-11-11 15:30:00,,0829.0,5.00,0.00,22.7,21.6,00.0,31.4,24.6,09.6,0000.0,0009.13,0004.60,0004.04
2022-11-11 15:31:00,,0829.0,5.01,0.00,22.7,21.6,00.0,31.5,24.6,09.7,0000.0,0009.03,0004.63,0004.05
2022-11-11 15:32:00,,0829.0,5.00,0.00,22.7,21.5,00.0,31.5,24.5,09.7,0000.0,0009.03,0004.65,0004.06
2022-11-11 15:33:00,,0829.0,5.01,0.00,22.7,21.5,00.0,31.5,24.5,09.7,0000.0,0009.00,0004.67,0004.07
2022-11-11 15:34:00,,0829.0,4.98,0.00,22.7,21.5,00.0,31.5,24.5,09.6,0000.0,0009.26,0004.67,0004.09
2022-11-11 15:35:00,,0829.0,5.00,0.00,22.7,21.4,00.0,31.5,24.5,09.6,0000.0,0009.69,0004.66,0004.10
2022-11-11 15:36:00,,0829.0,5.00,0.00,22.7,21.4,00.0,31.5,24.5,09.7,0000.0,0009.57,0004.64,0004.11
2022-11-11 15:37:00,,0829.0,5.00,0.00,22.7,21.4,00.0,31.5,24.5,09.8,0000.0,0009.86,0004.63,0004.10
2022-11-11 15:38:00,,0829.0,5.01,0.00,22.7,21.4,00.0,31.5,24.5,09.8,0000.0,0009.85,0004.63,0004.11
2022-11-11 15:39:00,,0829.0,4.99,0.00,22.7,21.3,00.0,31.5,24.4,09.8,0000.0,0009.72,0004.60,0004.11
2022-11-11 15:40:00,,0829.0,4.99,0.00,22.6,21.3,00.0,31.5,24.4,09.8,0000.0,0009.49,0004.58,0004.12
2022-11-11 15:41:00,,0829.0,4.99,0.00,22.6,21.3,00.0,31.5,24.4,09.8,0000.0,0009.74,0004.56,0004.12
2022-11-11 15:42:00,,0829.1,5.01,0.00,22.6,21.4,00.0,31.5,24.5,09.8,0000.0,0010.18,0004.56,0004.12
2022-11-11 15:43:00,,0829.0,5.01,0.00,22.7,22.2,00.0,31.4,24.7,09.8,0000.0,0010.64,0004.56,0004.13
2022-11-11 15:44:00,,0829.0,4.98,0.00,22.8,22.8,00.0,31.4,24.8,09.9,0000.0,0010.85,0004.54,0004.12
2022-11-11 15:45:00,,0829.0,5.00,0.00,22.8,22.6,00.0,31.5,24.8,09.8,0000.0,0011.17,0004.53,0004.10
2022-11-11 15:46:00,,0828.9,5.02,0.00,22.8,22.3,00.0,31.5,24.8,09.8,0000.0,0011.28,0004.53,0004.09
2022-11-11 15:47:00,,0829.1,5.00,0.00,22.8,22.0,00.0,31.5,24.8,09.8,0000.0,0011.81,0004.55,0004.08
2022-11-11 15:48:00,,0828.9,4.99,0.00,22.8,21.8,00.0,31.5,24.7,09.8,0000.0,0011.16,0004.55,0004.08
2022-11-11 15:49:00,,0828.9,5.00,0.00,22.8,21.7,00.0,31.5,24.7,09.8,0000.0,0011.21,0004.57,0004.07
2022-11-11 15:50:00,,0828.9,5.00,0.00,22.8,21.6,00.0,31.6,24.7,09.8,0000.0,0011.31,0004.58,0004.06
2022-11-11 15:51:00,,0828.9,5.00,0.00,22.8,21.6,00.0,31.6,24.6,09.9,0000.0,0012.09,0004.58,0004.05
2022-11-11 15:52:00,,0828.8,5.00,0.00,22.8,21.6,00.0,31.6,24.6,10.0,0000.0,0011.80,0004.58,0004.03
2022-11-11 15:53:00,,0828.8,5.01,0.00,22.8,21.5,00.0,31.6,24.6,10.0,0000.0,0011.79,0004.56,0004.02
2022-11-11 15:54:00,,0828.9,4.99,0.00,22.8,21.5,00.0,31.6,24.6,09.9,0000.0,0012.51,0004.56,0004.02
2022-11-11 15:55:00,,0828.9,4.99,0.00,22.8,21.4,00.0,31.6,24.6,09.9,0000.0,0012.32,0004.57,0004.02
2022-11-11 15:56:00,,0828.9,5.01,0.00,22.7,21.4,00.0,31.6,24.5,09.9,0000.0,0012.04,0004.58,0004.03
2022-11-11 15:57:00,,0828.8,5.01,0.00,22.7,21.3,00.0,31.6,24.5,10.0,0000.0,0011.86,0004.61,0004.03
2022-11-11 15:58:00,,0828.9,4.99,0.00,22.7,21.3,00.0,31.6,24.5,10.0,0000.0,0011.89,0004.62,0004.04
2022-11-11 15:59:00,,0828.8,5.00,0.00,22.7,21.3,00.0,31.6,24.5,10.0,0000.0,0012.41,0004.63,0004.05
